Location: Newark
(48.9233°N, 29.3439°E)
Time: 18:11:18
(UTC+00:00)

ISS - Visible Passes

Search period start: 22 September 2019 00:00
Search period end: 02 October 2019 00:00
Orbit: 411 x 421 km, 51.6° (Epoch: 23 September)

Date Brightness Start Highest point End Pass type
(mag) Time Alt. Az. Time Alt. Az. Time Alt. Az.
22 Sep -4.0 17:50:27 10° WSW 17:53:47 79° SSE 17:53:59 74° ESE visible
23 Sep -3.6 17:02:06 10° SW 17:05:22 55° SSE 17:07:37 18° ENE visible
23 Sep -1.6 18:38:52 10° W 18:40:32 26° WNW 18:40:32 26° WNW visible
24 Sep -3.6 17:50:19 10° W 17:53:37 65° NNW 17:54:03 56° NNE visible
25 Sep -3.8 17:01:48 10° WSW 17:05:07 81° NNW 17:07:30 18° ENE visible
25 Sep -1.4 18:38:49 10° WNW 18:40:23 24° WNW 18:40:23 24° WNW visible
26 Sep -3.3 17:50:15 10° W 17:53:31 51° N 17:53:46 50° NNE visible
27 Sep -3.3 17:01:40 10° W 17:04:57 56° N 17:07:06 19° ENE visible
27 Sep -1.2 18:38:39 10° WNW 18:40:00 22° WNW 18:40:00 22° WNW visible
28 Sep -3.3 17:50:06 10° WNW 17:53:18 53° N 17:53:18 53° N visible
29 Sep -3.2 17:01:31 10° WNW 17:04:47 50° N 17:06:35 23° ENE visible
29 Sep -1.0 18:38:22 10° WNW 18:39:28 19° WNW 18:39:28 19° WNW visible
30 Sep -3.2 16:12:54 10° W 16:16:11 52° N 16:19:27 10° ENE visible
30 Sep -3.4 17:49:50 10° WNW 17:52:44 60° NW 17:52:44 60° NW visible
01 Oct -3.5 17:01:16 10° WNW 17:04:34 58° N 17:06:01 29° E visible
01 Oct -0.8 18:38:04 10° WNW 18:38:54 16° W 18:38:54 16° W visible
